St. Paul, MN

3:47 PM CST on November 18, 2017 (GMT -0600)
Saint Paul Downtown-Holman

Weather History for KSTP - November, 2011

Change the Weather History Date:

Saturday, November 5, 2011

  Actual Average Record
Temperature  
Mean Temperature 48 °F -  
Max Temperature 57 °F 45 °F 72 °F (2016)
Min Temperature 39 °F 30 °F 19 °F (2003)
Degree Days  
Heating Degree Days 17    
Moisture  
Dew Point 38 °F    
Average Humidity 70    
Maximum Humidity 82    
Minimum Humidity 53    
Precipitation  
Precipitation 0.00 in - - ()
Sea Level Pressure  
Sea Level Pressure 29.88 in    
Wind  
Wind Speed 15 mph (SSE)    
Max Wind Speed 26 mph    
Max Gust Speed 33 mph    
Visibility 9 miles    
Events      
Averages and records for this station are not official NWS values.
T = Trace of Precipitation, MM = Missing Value Source: NWS Daily Summary

Daily Weather History Graph

Daily Weather History Graph

Search for Another Location

Airport or City:

Trip Planner

Search our weather history database for the weather conditions in past years. The results will help you decide how hot, cold, wet, or windy it might be!

Date:

Astronomy

Nov. 05, 2011 Rise Set
Actual Time 7:55 AM CDT 5:55 PM CDT
Civil Twilight 7:24 AM CDT 6:26 PM CDT
Nautical Twilight 6:49 AM CDT 7:01 PM CDT
Astronomical Twilight 6:15 AM CDT 7:35 PM CDT
Moon 3:23 PM CDT (11/5) 2:54 AM CDT (11/5)
Length of Visible Light 11h 01m
Length of Day
9h 59m
Waxing Gibbous, 78% of the Moon is Illuminated
Nov 5
Waxing Gibbous
Nov 10
Full
Nov 18
Last Quarter
Nov 25
New
Dec 2
First Quarter

Hourly Weather History & Observations

Time (CDT) Temp. Windchill Dew Point Humidity Pressure Visibility Wind Dir Wind Speed Gust Speed Precip Events Conditions
12:53 AM 39.9 °F 33.9 °F 30.9 °F 70% 30.09 in 10.0 mi SSE 9.2 mph - N/A   Clear
1:53 AM 39.0 °F 34.0 °F 32.0 °F 76% 30.09 in 10.0 mi SE 6.9 mph - N/A   Clear
2:53 AM 39.9 °F 33.4 °F 33.1 °F 77% 30.07 in 10.0 mi SSE 10.4 mph - N/A   Clear
3:53 AM 42.8 °F 35.4 °F 33.8 °F 70% 30.04 in 10.0 mi SSE 15.0 mph - N/A   Clear
4:53 AM 42.1 °F 35.2 °F 33.1 °F 70% 30.04 in 10.0 mi SSE 12.7 mph 20.7 mph N/A   Clear
5:53 AM 42.1 °F 34.2 °F 33.1 °F 70% 30.02 in 10.0 mi SSE 16.1 mph 23.0 mph N/A   Clear
6:53 AM 41.0 °F 32.5 °F 33.8 °F 76% 30.00 in 10.0 mi SSE 17.3 mph - N/A   Clear
7:53 AM 41.0 °F 32.8 °F 34.0 °F 76% 29.99 in 10.0 mi SSE 16.1 mph - N/A   Clear
8:53 AM 42.1 °F 33.9 °F 35.1 °F 76% 29.98 in 10.0 mi SSE 17.3 mph 21.9 mph N/A   Clear
9:53 AM 45.0 °F 37.1 °F 37.0 °F 74% 29.96 in 10.0 mi SSE 19.6 mph 23.0 mph N/A   Clear
10:53 AM 48.9 °F - 39.0 °F 69% 29.94 in 10.0 mi SSE 17.3 mph - N/A   Clear
11:53 AM 52.0 °F - 39.9 °F 63% 29.92 in 10.0 mi SSE 20.7 mph 24.2 mph N/A   Clear
12:53 PM 55.0 °F - 39.9 °F 57% 29.89 in 10.0 mi SSE 20.7 mph 28.8 mph N/A   Clear
1:53 PM 57.2 °F - 41.0 °F 55% 29.84 in 10.0 mi SSE 18.4 mph 26.5 mph N/A   Clear
2:53 PM 57.9 °F - 41.0 °F 53% 29.82 in 9.0 mi SSE 19.6 mph - N/A   Clear
3:53 PM 55.9 °F - 39.9 °F 55% 29.81 in 9.0 mi SSE 19.6 mph 29.9 mph N/A   Clear
4:53 PM 55.0 °F - 39.9 °F 57% 29.79 in 9.0 mi SSE 21.9 mph 26.5 mph N/A   Clear
5:53 PM 54.0 °F - 41.0 °F 62% 29.78 in 10.0 mi SSE 17.3 mph 26.5 mph N/A   Clear
6:53 PM 53.1 °F - 39.9 °F 61% 29.78 in 10.0 mi SSE 21.9 mph 33.4 mph N/A   Clear
7:53 PM 50.0 °F - 39.9 °F 68% 29.78 in 8.0 mi SSE 21.9 mph 32.2 mph N/A   Clear
8:53 PM 46.9 °F - 39.9 °F 77% 29.76 in 7.0 mi SSE 26.5 mph 33.4 mph N/A   Clear
9:22 PM 46.4 °F 39.5 °F 39.2 °F 76% 29.75 in 7.0 mi SSE 17.3 mph 32.2 mph N/A   Mostly Cloudy
9:53 PM 46.0 °F 38.8 °F 39.9 °F 79% 29.75 in 6.0 mi SE 18.4 mph 31.1 mph N/A   Haze
10:25 PM 46.4 °F 39.2 °F 39.2 °F 76% 29.74 in 7.0 mi SSE 18.4 mph 25.3 mph N/A   Scattered Clouds
10:53 PM 46.9 °F - 41.0 °F 80% 29.75 in 7.0 mi SSE 17.3 mph 20.7 mph N/A   Clear
11:33 PM 48.2 °F - 42.8 °F 82% 29.75 in 7.0 mi South 12.7 mph - N/A   Mostly Cloudy
11:53 PM 50.0 °F - 43.0 °F 77% 29.76 in 7.0 mi South 16.1 mph - N/A   Mostly Cloudy